Location: Bushey
(51.6333°N, 0.3667°W)
Time: 18:45:38
(UTC+00:00)

SL-4 R/B - Pass Details

Date: 03 March 2021
Orbit: 428 x 663 km, 51.6° (Epoch: 17 April)

Event Time Altitude Azimuth Distance (km) Brightness Sun altitude
Rises 19:49:14 0° 283° (WNW) 2,473 7.0 -19.8°
Reaches altitude 10° 19:51:26 10° 279° (W) 1,572 5.5 -20.2°
Enters shadow 19:54:51 52° 202° (SSW) 547 1.9 -20.7°
